SDM9898 UEEE-UNKL

Flight info

Callsign SDM9898
Flight time 3h 1m
Altitude 36000
Route N0460F360 ABGUR W289 GISUN W39 ERBOG W105 LANAP W339 BARIK W261 OKRIM
Aircraft B738/M-Q/L

Departure

Time 2026-04-19 19:19
Airport Platon Oyunsky Yakutsk International Airport (UEEE)

Arrival

Time 2026-04-19 22:20
Airport Krasnoyarsk International Airport (UNKL)
Time Latitude Longitude Altitude Speed Heading
2026-04-19 18:49 62.08689 129.75169 312 ft 0 kts 269°
2026-04-19 19:11 62.08689 129.75182 311 ft 2 kts 269°
2026-04-19 19:12 62.08689 129.75212 311 ft 2 kts 269°
2026-04-19 19:12 62.08689 129.75244 311 ft 2 kts 269°
2026-04-19 19:12 62.08690 129.75276 310 ft 2 kts 269°
2026-04-19 19:12 62.08690 129.75308 310 ft 2 kts 269°
2026-04-19 19:13 62.08689 129.75340 310 ft 2 kts 291°
2026-04-19 19:13 62.08682 129.75368 310 ft 2 kts 314°
2026-04-19 19:13 62.08670 129.75386 310 ft 2 kts 339°
2026-04-19 19:13 62.08655 129.75392 310 ft 2 kts
2026-04-19 19:14 62.08641 129.75385 310 ft 1 kts 27°
2026-04-19 19:14 62.08635 129.75377 310 ft 1 kts 38°
2026-04-19 19:14 62.08632 129.75372 310 ft 0 kts 35°
2026-04-19 19:15 62.08632 129.75374 310 ft 0 kts 35°
2026-04-19 19:16 62.08637 129.75380 310 ft 4 kts 33°
2026-04-19 19:16 62.08684 129.75467 309 ft 10 kts 66°
2026-04-19 19:16 62.08666 129.75627 307 ft 12 kts 121°
2026-04-19 19:16 62.08619 129.75790 305 ft 13 kts 122°
2026-04-19 19:17 62.08567 129.75954 305 ft 13 kts 127°
2026-04-19 19:17 62.08515 129.76103 304 ft 8 kts 122°
2026-04-19 19:17 62.08513 129.76160 304 ft 3 kts 66°
2026-04-19 19:17 62.08526 129.76199 304 ft 3 kts 48°
2026-04-19 19:18 62.08543 129.76228 304 ft 4 kts 35°
2026-04-19 19:18 62.08697 129.76471 303 ft 63 kts 36°
2026-04-19 19:18 62.09240 129.77365 301 ft 131 kts 36°
2026-04-19 19:18 62.10129 129.78737 387 ft 178 kts 35°
2026-04-19 19:19 62.11096 129.80183 1306 ft 169 kts 36°
2026-04-19 19:19 62.12020 129.81657 2169 ft 166 kts 40°
2026-04-19 19:19 62.12937 129.83208 2598 ft 178 kts 40°
2026-04-19 19:20 62.14688 129.86046 3262 ft 201 kts 38°
2026-04-19 19:20 62.16240 129.88536 3774 ft 221 kts 38°
2026-04-19 19:20 62.17502 129.90561 4290 ft 232 kts 37°
2026-04-19 19:20 62.18920 129.92310 4941 ft 241 kts 22°
2026-04-19 19:21 62.20604 129.92780 5468 ft 256 kts 356°
2026-04-19 19:21 62.22349 129.91746 6156 ft 265 kts 339°
2026-04-19 19:21 62.23916 129.89655 6839 ft 273 kts 319°
2026-04-19 19:21 62.25155 129.86540 7548 ft 279 kts 308°
2026-04-19 19:22 62.26271 129.83145 8292 ft 281 kts 307°
2026-04-19 19:22 62.27385 129.79747 9003 ft 283 kts 308°
2026-04-19 19:22 62.28545 129.76312 9705 ft 285 kts 309°
2026-04-19 19:22 62.29703 129.72807 10374 ft 290 kts 305°
2026-04-19 19:23 62.30558 129.68796 10715 ft 308 kts 286°
2026-04-19 19:23 62.30712 129.64117 11043 ft 325 kts 265°
2026-04-19 19:23 62.30137 129.59285 11365 ft 341 kts 249°
2026-04-19 19:23 62.29082 129.54634 11635 ft 357 kts 242°
2026-04-19 19:24 62.27802 129.49960 12044 ft 367 kts 239°
2026-04-19 19:24 62.26483 129.45287 12606 ft 372 kts 242°
2026-04-19 19:24 62.25383 129.40265 13195 ft 375 kts 250°
2026-04-19 19:24 62.24547 129.34933 13810 ft 377 kts 255°
2026-04-19 19:25 62.23827 129.29497 14410 ft 380 kts 256°
2026-04-19 19:25 62.23124 129.24054 14988 ft 383 kts 256°
2026-04-19 19:25 62.22395 129.18582 15576 ft 385 kts 256°
2026-04-19 19:25 62.21627 129.13036 16153 ft 388 kts 255°
2026-04-19 19:26 62.20837 129.07510 16675 ft 392 kts 255°
2026-04-19 19:26 62.20016 129.01891 17212 ft 395 kts 255°
2026-04-19 19:26 62.19193 128.96335 17737 ft 398 kts 256°
2026-04-19 19:26 62.18373 128.90707 18250 ft 399 kts 257°
2026-04-19 19:27 62.17685 128.84877 18769 ft 400 kts 263°
2026-04-19 19:27 62.17342 128.79044 19271 ft 398 kts 270°
2026-04-19 19:27 62.17283 128.73102 19768 ft 399 kts 275°
2026-04-19 19:27 62.17364 128.67157 20256 ft 401 kts 277°
2026-04-19 19:28 62.17516 128.61240 20717 ft 403 kts 278°
2026-04-19 19:28 62.17691 128.55255 21203 ft 405 kts 278°
2026-04-19 19:28 62.17867 128.49234 21658 ft 409 kts 278°
2026-04-19 19:28 62.18031 128.43187 22114 ft 411 kts 277°
2026-04-19 19:29 62.18187 128.37033 22555 ft 414 kts 277°
2026-04-19 19:29 62.18333 128.30859 22987 ft 417 kts 276°
2026-04-19 19:29 62.18471 128.24585 23448 ft 419 kts 276°
2026-04-19 19:29 62.18601 128.18368 23920 ft 420 kts 276°
2026-04-19 19:30 62.18726 128.12143 24337 ft 423 kts 276°
2026-04-19 19:30 62.18848 128.05862 24733 ft 426 kts 276°
2026-04-19 19:30 62.18968 127.99535 25161 ft 428 kts 276°
2026-04-19 19:30 62.19086 127.93134 25553 ft 431 kts 276°
2026-04-19 19:31 62.19200 127.86758 25972 ft 432 kts 276°
2026-04-19 19:31 62.19312 127.80312 26350 ft 435 kts 276°
2026-04-19 19:31 62.19422 127.73808 26756 ft 437 kts 276°
2026-04-19 19:31 62.19529 127.67309 27111 ft 440 kts 276°
2026-04-19 19:32 62.19633 127.60767 27492 ft 442 kts 276°
2026-04-19 19:32 62.19734 127.54202 27891 ft 444 kts 276°
2026-04-19 19:32 62.19835 127.47547 28192 ft 447 kts 276°
2026-04-19 19:32 62.19930 127.40962 28569 ft 448 kts 276°
2026-04-19 19:33 62.20025 127.34199 28911 ft 451 kts 275°
2026-04-19 19:33 62.20118 127.27382 29229 ft 453 kts 275°
2026-04-19 19:33 62.20206 127.20631 29633 ft 453 kts 275°
2026-04-19 19:33 62.20290 127.13863 30235 ft 449 kts 275°
2026-04-19 19:34 62.20368 127.07195 30693 ft 447 kts 275°
2026-04-19 19:34 62.20445 127.00465 31113 ft 447 kts 275°
2026-04-19 19:34 62.20518 126.93854 31544 ft 445 kts 275°
2026-04-19 19:34 62.20599 126.87191 31979 ft 443 kts 275°
2026-04-19 19:35 62.20744 126.80553 32410 ft 441 kts 276°
2026-04-19 19:35 62.20933 126.74050 32775 ft 440 kts 277°
2026-04-19 19:35 62.21144 126.67420 33134 ft 440 kts 277°
2026-04-19 19:35 62.21353 126.60885 33492 ft 439 kts 277°
2026-04-19 19:36 62.21553 126.54444 33873 ft 438 kts 277°
2026-04-19 19:36 62.21749 126.47926 34200 ft 437 kts 276°
2026-04-19 19:36 62.21939 126.41372 34523 ft 437 kts 276°
2026-04-19 19:36 62.22121 126.34893 34846 ft 436 kts 275°
2026-04-19 19:37 62.22300 126.28270 35141 ft 436 kts 275°
2026-04-19 19:37 62.22469 126.21859 35418 ft 436 kts 275°
2026-04-19 19:37 62.22635 126.15339 35668 ft 435 kts 275°
2026-04-19 19:37 62.22797 126.08894 35830 ft 436 kts 275°
2026-04-19 19:38 62.22955 126.02427 35963 ft 437 kts 275°
2026-04-19 19:38 62.23266 125.89380 35995 ft 439 kts 275°
2026-04-19 19:39 62.23561 125.76363 35998 ft 437 kts 275°
2026-04-19 19:39 62.23844 125.63309 36000 ft 437 kts 275°
2026-04-19 19:40 62.24115 125.50297 35920 ft 437 kts 274°
2026-04-19 19:40 62.24374 125.37299 36002 ft 440 kts 274°
2026-04-19 19:41 62.24623 125.24149 36004 ft 439 kts 273°
2026-04-19 19:41 62.24859 125.10995 36004 ft 439 kts 273°
2026-04-19 19:42 62.25082 124.97865 36003 ft 440 kts 273°
2026-04-19 19:42 62.25293 124.84757 36001 ft 438 kts 273°
2026-04-19 19:43 62.25490 124.71764 36002 ft 437 kts 273°
2026-04-19 19:43 62.25677 124.58671 35999 ft 437 kts 272°
2026-04-19 19:44 62.25849 124.45707 35996 ft 436 kts 272°
2026-04-19 19:44 62.26009 124.32709 36000 ft 436 kts 271°
2026-04-19 19:45 62.26157 124.19696 36000 ft 436 kts 271°
2026-04-19 19:45 62.26294 124.06659 36003 ft 436 kts 271°
2026-04-19 19:46 62.26418 123.93739 35992 ft 435 kts 271°
2026-04-19 19:46 62.26529 123.80772 35996 ft 436 kts 271°
2026-04-19 19:47 62.26629 123.67808 35989 ft 435 kts 271°
2026-04-19 19:47 62.26720 123.54888 35986 ft 434 kts 271°
2026-04-19 19:48 62.26799 123.41960 35975 ft 434 kts 271°
2026-04-19 19:48 62.26866 123.29037 35972 ft 435 kts 270°
2026-04-19 19:49 62.26921 123.16027 35968 ft 435 kts 269°
2026-04-19 19:49 62.26964 123.03052 35970 ft 435 kts 269°
2026-04-19 19:50 62.26995 122.90054 35971 ft 436 kts 269°
2026-04-19 19:50 62.27014 122.77108 35971 ft 434 kts 269°
2026-04-19 19:51 62.27021 122.64154 35971 ft 434 kts 269°
2026-04-19 19:51 62.27016 122.51197 35964 ft 434 kts 269°
2026-04-19 19:52 62.26999 122.38325 35967 ft 434 kts 268°
2026-04-19 19:52 62.26969 122.25301 35969 ft 435 kts 267°
2026-04-19 19:53 62.26928 122.12354 35963 ft 435 kts 267°
2026-04-19 19:53 62.26872 121.99418 35959 ft 435 kts 267°
2026-04-19 19:54 62.26804 121.86433 35955 ft 435 kts 266°
2026-04-19 19:54 62.26725 121.73433 35943 ft 436 kts 266°
2026-04-19 19:55 62.26651 121.62634 35937 ft 435 kts 266°
2026-04-19 19:55 62.26532 121.47487 35934 ft 435 kts 266°
2026-04-19 19:56 62.26417 121.34586 35931 ft 437 kts 265°
2026-04-19 19:56 62.26290 121.21413 35932 ft 436 kts 265°
2026-04-19 19:57 62.26154 121.08431 35935 ft 437 kts 265°
2026-04-19 19:57 62.26006 120.95405 35941 ft 437 kts 265°
2026-04-19 19:58 62.25841 120.82353 35937 ft 436 kts 265°
2026-04-19 19:58 62.25668 120.69325 35933 ft 437 kts 265°
2026-04-19 19:59 62.25488 120.56305 35936 ft 437 kts 264°
2026-04-19 19:59 62.25285 120.43232 35936 ft 438 kts 264°
2026-04-19 20:00 62.25073 120.30232 35931 ft 437 kts 263°
2026-04-19 20:00 62.24845 120.17264 35930 ft 436 kts 263°
2026-04-19 20:01 62.24608 120.04224 35930 ft 436 kts 263°
2026-04-19 20:01 62.24359 119.91220 36029 ft 437 kts 263°
2026-04-19 20:02 62.24096 119.78267 35934 ft 433 kts 263°
2026-04-19 20:02 62.23825 119.65386 35929 ft 436 kts 263°
2026-04-19 20:03 62.23539 119.52354 35927 ft 436 kts 263°
2026-04-19 20:03 62.23245 119.39440 35928 ft 435 kts 263°
2026-04-19 20:04 62.22931 119.26400 35930 ft 436 kts 262°
2026-04-19 20:04 62.22613 119.13500 35934 ft 434 kts 261°
2026-04-19 20:05 62.22304 119.00630 35944 ft 436 kts 262°
2026-04-19 20:05 62.21987 118.87687 35946 ft 436 kts 262°
2026-04-19 20:06 62.21653 118.74745 35945 ft 436 kts 261°
2026-04-19 20:06 62.21311 118.61755 35944 ft 436 kts 262°
2026-04-19 20:07 62.21079 118.53252 35951 ft 436 kts 261°
2026-04-19 20:07 62.20723 118.40758 35951 ft 435 kts 261°
2026-04-19 20:08 62.20339 118.27638 35958 ft 436 kts 260°
2026-04-19 20:08 62.19952 118.14702 35966 ft 436 kts 260°
2026-04-19 20:09 62.19546 118.01672 35975 ft 436 kts 260°
2026-04-19 20:09 62.19133 117.88752 35980 ft 436 kts 259°
2026-04-19 20:10 62.18702 117.75802 35987 ft 436 kts 260°
2026-04-19 20:10 62.18250 117.62840 35995 ft 435 kts 259°
2026-04-19 20:11 62.17667 117.50011 35993 ft 435 kts 258°
2026-04-19 20:11 62.17021 117.37126 35997 ft 434 kts 258°
2026-04-19 20:12 62.16365 117.24146 35995 ft 433 kts 257°
2026-04-19 20:12 62.15712 117.11330 35991 ft 434 kts 257°
2026-04-19 20:13 62.15051 116.98512 35996 ft 433 kts 257°
2026-04-19 20:13 62.14379 116.85702 36004 ft 433 kts 257°
2026-04-19 20:14 62.13696 116.72895 36004 ft 434 kts 257°
2026-04-19 20:14 62.12997 116.60078 36008 ft 434 kts 257°
2026-04-19 20:15 62.12409 116.49438 36010 ft 434 kts 257°
2026-04-19 20:15 62.11568 116.34527 36008 ft 434 kts 256°
2026-04-19 20:16 62.10831 116.21653 36005 ft 432 kts 256°
2026-04-19 20:16 62.10086 116.08865 35999 ft 432 kts 256°
2026-04-19 20:17 62.09326 115.96071 35993 ft 432 kts 256°
2026-04-19 20:17 62.08559 115.83401 35988 ft 433 kts 256°
2026-04-19 20:18 62.07775 115.70682 35983 ft 433 kts 256°
2026-04-19 20:18 62.06979 115.57924 35983 ft 434 kts 256°
2026-04-19 20:19 62.06184 115.45268 35989 ft 433 kts 256°
2026-04-19 20:19 62.05369 115.32468 35993 ft 434 kts 255°
2026-04-19 20:20 62.04546 115.19653 36000 ft 433 kts 255°
2026-04-19 20:20 62.03720 115.06970 36011 ft 432 kts 255°
2026-04-19 20:21 62.02883 114.94375 36003 ft 433 kts 255°
2026-04-19 20:21 62.02020 114.81672 36016 ft 434 kts 255°
2026-04-19 20:22 62.01144 114.68911 36016 ft 434 kts 255°
2026-04-19 20:22 62.00254 114.56127 36012 ft 436 kts 255°
2026-04-19 20:23 61.99359 114.43404 36016 ft 436 kts 255°
2026-04-19 20:23 61.98447 114.30600 36019 ft 435 kts 254°
2026-04-19 20:24 61.97524 114.17841 36022 ft 436 kts 254°
2026-04-19 20:24 61.96594 114.05161 36037 ft 435 kts 254°
2026-04-19 20:25 61.95644 113.92421 36029 ft 435 kts 254°
2026-04-19 20:25 61.94684 113.79687 36035 ft 435 kts 254°
2026-04-19 20:26 61.93718 113.67038 36036 ft 436 kts 254°
2026-04-19 20:26 61.92740 113.54374 36036 ft 435 kts 254°
2026-04-19 20:27 61.91750 113.41730 36037 ft 434 kts 254°
2026-04-19 20:27 61.90737 113.28921 36037 ft 433 kts 253°
2026-04-19 20:28 61.89723 113.16284 36036 ft 434 kts 253°
2026-04-19 20:28 61.88690 113.03584 36031 ft 434 kts 253°
2026-04-19 20:29 61.87656 112.91001 36027 ft 434 kts 253°
2026-04-19 20:29 61.86610 112.78432 36036 ft 435 kts 253°
2026-04-19 20:30 61.85019 112.59572 36029 ft 434 kts 253°
2026-04-19 20:30 61.83944 112.47008 36031 ft 434 kts 253°
2026-04-19 20:31 61.82851 112.34383 36030 ft 435 kts 252°
2026-04-19 20:31 61.81749 112.21784 36026 ft 435 kts 252°
2026-04-19 20:32 61.80619 112.09183 36030 ft 435 kts 251°
2026-04-19 20:32 61.79242 111.96742 36032 ft 434 kts 249°
2026-04-19 20:33 61.77740 111.84434 36018 ft 432 kts 249°
2026-04-19 20:33 61.76250 111.72223 36021 ft 433 kts 249°
2026-04-19 20:34 61.74757 111.59911 36016 ft 432 kts 249°
2026-04-19 20:34 61.73268 111.47628 36019 ft 432 kts 249°
2026-04-19 20:35 61.71785 111.35423 36013 ft 432 kts 249°
2026-04-19 20:35 61.70277 111.23092 36020 ft 432 kts 249°
2026-04-19 20:36 61.68776 111.10913 36018 ft 432 kts 249°
2026-04-19 20:36 61.67773 111.02831 36026 ft 430 kts 249°
2026-04-19 20:37 61.65746 110.86637 36015 ft 432 kts 249°
2026-04-19 20:37 61.64210 110.74464 36018 ft 430 kts 248°
2026-04-19 20:38 61.62656 110.62273 36014 ft 431 kts 249°
2026-04-19 20:38 61.61107 110.50194 36038 ft 431 kts 249°
2026-04-19 20:39 61.59529 110.38005 36020 ft 432 kts 249°
2026-04-19 20:39 61.57943 110.25835 36026 ft 432 kts 248°
2026-04-19 20:40 61.56352 110.13713 36026 ft 432 kts 248°
2026-04-19 20:40 61.54750 110.01611 36032 ft 432 kts 248°
2026-04-19 20:41 61.53130 109.89473 36038 ft 433 kts 248°
2026-04-19 20:41 61.51516 109.77457 36035 ft 432 kts 248°
2026-04-19 20:42 61.49881 109.65381 36031 ft 433 kts 248°
2026-04-19 20:42 61.48219 109.53203 36019 ft 434 kts 249°
2026-04-19 20:43 61.46558 109.41131 36023 ft 434 kts 249°
2026-04-19 20:43 61.44878 109.29024 36017 ft 434 kts 248°
2026-04-19 20:44 61.43195 109.16966 36018 ft 434 kts 248°
2026-04-19 20:44 61.41485 109.04810 36003 ft 434 kts 248°
2026-04-19 20:45 61.39775 108.92739 36012 ft 436 kts 248°
2026-04-19 20:45 61.38049 108.80647 36013 ft 435 kts 248°
2026-04-19 20:46 61.36321 108.68627 36009 ft 436 kts 249°
2026-04-19 20:46 61.34563 108.56490 35995 ft 436 kts 249°
2026-04-19 20:47 61.32807 108.44450 35992 ft 435 kts 249°
2026-04-19 20:47 61.31029 108.32353 35996 ft 436 kts 248°
2026-04-19 20:48 61.29254 108.20348 35994 ft 436 kts 248°
2026-04-19 20:48 61.27453 108.08266 35994 ft 437 kts 248°
2026-04-19 20:49 61.25693 107.96197 35999 ft 437 kts 250°
2026-04-19 20:49 61.24084 107.84075 35982 ft 438 kts 251°
2026-04-19 20:50 61.22489 107.71883 35975 ft 439 kts 251°
2026-04-19 20:50 61.20863 107.59634 35974 ft 439 kts 251°
2026-04-19 20:51 61.19228 107.47500 35981 ft 439 kts 251°
2026-04-19 20:51 61.17562 107.35292 35979 ft 438 kts 251°
2026-04-19 20:52 61.15891 107.23167 35981 ft 438 kts 250°
2026-04-19 20:52 61.14209 107.11056 35978 ft 438 kts 250°
2026-04-19 20:53 61.12510 106.98914 35976 ft 440 kts 250°
2026-04-19 20:53 61.10804 106.86816 35979 ft 440 kts 250°
2026-04-19 20:54 61.09084 106.74712 35980 ft 439 kts 251°
2026-04-19 20:54 61.07358 106.62657 35982 ft 439 kts 250°
2026-04-19 20:55 61.05622 106.50629 35977 ft 439 kts 251°
2026-04-19 20:55 61.03867 106.38538 35976 ft 439 kts 251°
2026-04-19 20:56 61.02097 106.26446 35970 ft 439 kts 250°
2026-04-19 20:56 61.00324 106.14410 35972 ft 439 kts 250°
2026-04-19 20:57 60.98540 106.02390 35977 ft 440 kts 250°
2026-04-19 20:57 60.96751 105.90424 35978 ft 439 kts 250°
2026-04-19 20:58 60.94950 105.78460 35971 ft 440 kts 250°
2026-04-19 20:58 60.93128 105.66444 35967 ft 439 kts 250°
2026-04-19 20:59 60.91296 105.54440 35959 ft 440 kts 250°
2026-04-19 20:59 60.89464 105.42523 35959 ft 440 kts 250°
2026-04-19 21:00 60.87606 105.30524 35954 ft 440 kts 250°
2026-04-19 21:00 60.85751 105.18621 35948 ft 440 kts 250°
2026-04-19 21:01 60.83874 105.06665 35943 ft 441 kts 250°
2026-04-19 21:01 60.82000 104.94806 35931 ft 441 kts 250°
2026-04-19 21:02 60.80106 104.82898 35929 ft 439 kts 250°
2026-04-19 21:02 60.78204 104.71022 35920 ft 439 kts 250°
2026-04-19 21:03 60.76302 104.59223 35920 ft 438 kts 250°
2026-04-19 21:03 60.74395 104.47473 35916 ft 438 kts 250°
2026-04-19 21:04 60.72460 104.35632 35914 ft 438 kts 250°
2026-04-19 21:04 60.70522 104.23869 35916 ft 438 kts 249°
2026-04-19 21:05 60.68566 104.12099 35913 ft 438 kts 249°
2026-04-19 21:05 60.66607 104.00383 35907 ft 438 kts 250°
2026-04-19 21:06 60.64633 103.88644 35908 ft 437 kts 250°
2026-04-19 21:06 60.62658 103.76978 35900 ft 439 kts 250°
2026-04-19 21:07 60.60649 103.65186 35898 ft 439 kts 250°
2026-04-19 21:07 60.58649 103.53523 35895 ft 439 kts 250°
2026-04-19 21:08 60.56637 103.41861 35894 ft 438 kts 250°
2026-04-19 21:08 60.54604 103.30154 35894 ft 439 kts 249°
2026-04-19 21:09 60.52563 103.18470 35894 ft 440 kts 249°
2026-04-19 21:09 60.50509 103.06791 35901 ft 440 kts 249°
2026-04-19 21:10 60.48456 102.95184 35900 ft 440 kts 249°
2026-04-19 21:10 60.46382 102.83510 35900 ft 439 kts 250°
2026-04-19 21:11 60.44307 102.71891 35898 ft 439 kts 250°
2026-04-19 21:11 60.42234 102.60350 35903 ft 438 kts 250°
2026-04-19 21:12 60.40151 102.48834 35902 ft 438 kts 250°
2026-04-19 21:12 60.38024 102.37309 35907 ft 439 kts 248°
2026-04-19 21:13 60.35301 102.26221 35897 ft 439 kts 238°
2026-04-19 21:13 60.31821 102.16054 35898 ft 439 kts 233°
2026-04-19 21:14 60.28151 102.06218 35901 ft 440 kts 233°
2026-04-19 21:14 60.24486 101.96481 35900 ft 439 kts 233°
2026-04-19 21:15 60.20805 101.86658 35896 ft 438 kts 233°
2026-04-19 21:15 60.17154 101.76892 35889 ft 439 kts 234°
2026-04-19 21:16 60.13517 101.67164 35888 ft 439 kts 234°
2026-04-19 21:16 60.09861 101.57372 35879 ft 438 kts 234°
2026-04-19 21:17 60.06207 101.47611 35876 ft 439 kts 234°
2026-04-19 21:17 60.02571 101.37936 35875 ft 439 kts 234°
2026-04-19 21:18 59.98891 101.28188 35878 ft 439 kts 233°
2026-04-19 21:18 59.95209 101.18478 35875 ft 439 kts 233°
2026-04-19 21:19 59.91528 101.08813 35872 ft 439 kts 233°
2026-04-19 21:19 59.87819 100.99113 35869 ft 438 kts 234°
2026-04-19 21:20 59.84127 100.89500 35874 ft 438 kts 234°
2026-04-19 21:20 59.80413 100.79866 35870 ft 438 kts 234°
2026-04-19 21:21 59.76710 100.70303 35872 ft 437 kts 234°
2026-04-19 21:21 59.72984 100.60720 35873 ft 438 kts 234°
2026-04-19 21:22 59.69268 100.51199 35877 ft 439 kts 234°
2026-04-19 21:22 59.65551 100.41718 35877 ft 438 kts 234°
2026-04-19 21:23 59.61799 100.32185 35875 ft 438 kts 233°
2026-04-19 21:23 59.58058 100.22720 35872 ft 438 kts 233°
2026-04-19 21:24 59.54301 100.13250 35880 ft 438 kts 233°
2026-04-19 21:24 59.50549 100.03833 35885 ft 438 kts 233°
2026-04-19 21:25 59.46791 99.94441 35889 ft 438 kts 234°
2026-04-19 21:25 59.43028 99.85072 35882 ft 438 kts 234°
2026-04-19 21:26 59.39265 99.75738 35878 ft 438 kts 234°
2026-04-19 21:26 59.35481 99.66392 35880 ft 438 kts 234°
2026-04-19 21:27 59.31699 99.57089 35883 ft 437 kts 234°
2026-04-19 21:27 59.27879 99.47730 35884 ft 437 kts 234°
2026-04-19 21:28 59.24099 99.38506 35887 ft 438 kts 234°
2026-04-19 21:28 59.20255 99.29162 35885 ft 438 kts 233°
2026-04-19 21:29 59.16443 99.19933 35898 ft 437 kts 233°
2026-04-19 21:29 59.12646 99.10777 35903 ft 438 kts 233°
2026-04-19 21:30 59.08804 99.01547 35908 ft 437 kts 233°
2026-04-19 21:30 59.04965 98.92362 35919 ft 437 kts 233°
2026-04-19 21:31 59.01144 98.83257 35916 ft 437 kts 233°
2026-04-19 21:31 58.97310 98.74155 35926 ft 437 kts 233°
2026-04-19 21:32 58.93454 98.65038 35931 ft 436 kts 234°
2026-04-19 21:32 58.89606 98.55975 35943 ft 436 kts 234°
2026-04-19 21:33 58.85730 98.46882 35949 ft 436 kts 234°
2026-04-19 21:33 58.81852 98.37816 35956 ft 435 kts 234°
2026-04-19 21:34 58.77974 98.28789 35959 ft 436 kts 233°
2026-04-19 21:34 58.74089 98.19777 35968 ft 435 kts 233°
2026-04-19 21:35 58.70233 98.10871 35963 ft 434 kts 233°
2026-04-19 21:35 58.66372 98.01987 35962 ft 434 kts 233°
2026-04-19 21:36 58.62500 97.93107 35959 ft 434 kts 233°
2026-04-19 21:36 58.58611 97.84225 35970 ft 435 kts 234°
2026-04-19 21:37 58.54711 97.75348 35972 ft 434 kts 234°
2026-04-19 21:37 58.50833 97.66542 35968 ft 433 kts 234°
2026-04-19 21:38 58.46959 97.57774 35970 ft 432 kts 234°
2026-04-19 21:38 58.43068 97.49002 35955 ft 432 kts 234°
2026-04-19 21:39 58.39182 97.40271 35967 ft 432 kts 234°
2026-04-19 21:39 58.35563 97.31161 35980 ft 429 kts 240°
2026-04-19 21:40 58.30808 97.16855 35992 ft 427 kts 242°
2026-04-19 21:41 58.27662 97.07304 35991 ft 427 kts 242°
2026-04-19 21:41 58.24477 96.97784 35979 ft 426 kts 242°
2026-04-19 21:42 58.21288 96.88338 35968 ft 426 kts 242°
2026-04-19 21:42 58.18068 96.78856 35973 ft 427 kts 242°
2026-04-19 21:43 58.14850 96.69440 35967 ft 425 kts 242°
2026-04-19 21:43 58.11646 96.60111 35962 ft 425 kts 242°
2026-04-19 21:44 58.08431 96.50788 35971 ft 424 kts 242°
2026-04-19 21:44 58.05212 96.41487 35966 ft 424 kts 242°
2026-04-19 21:45 58.01968 96.32153 35976 ft 424 kts 241°
2026-04-19 21:45 57.98740 96.22848 35980 ft 424 kts 242°
2026-04-19 21:46 57.95594 96.13454 35976 ft 422 kts 243°
2026-04-19 21:46 57.92493 96.04110 35991 ft 423 kts 243°
2026-04-19 21:47 57.89368 95.94756 36010 ft 422 kts 243°
2026-04-19 21:47 57.86215 95.85390 36006 ft 422 kts 243°
2026-04-19 21:48 57.83074 95.76107 36009 ft 422 kts 243°
2026-04-19 21:48 57.79921 95.66833 36028 ft 421 kts 243°
2026-04-19 21:49 57.76776 95.57619 36028 ft 421 kts 243°
2026-04-19 21:49 57.73614 95.48393 36038 ft 421 kts 243°
2026-04-19 21:50 57.70449 95.39192 36046 ft 421 kts 243°
2026-04-19 21:50 57.67274 95.30001 36032 ft 420 kts 242°
2026-04-19 21:51 57.64114 95.20890 36034 ft 419 kts 242°
2026-04-19 21:51 57.60938 95.11772 36039 ft 419 kts 243°
2026-04-19 21:52 57.57775 95.02711 36049 ft 418 kts 243°
2026-04-19 21:52 57.54611 94.93684 36063 ft 418 kts 243°
2026-04-19 21:53 57.51422 94.84626 36063 ft 417 kts 243°
2026-04-19 21:53 57.48235 94.75610 36069 ft 417 kts 243°
2026-04-19 21:54 57.45051 94.66637 36062 ft 417 kts 243°
2026-04-19 21:54 57.41861 94.57673 36066 ft 417 kts 243°
2026-04-19 21:55 57.38679 94.48762 36068 ft 417 kts 243°
2026-04-19 21:55 57.35474 94.39828 36049 ft 416 kts 243°
2026-04-19 21:56 57.32263 94.30907 36059 ft 418 kts 242°
2026-04-19 21:56 57.29052 94.22023 36060 ft 416 kts 242°
2026-04-19 21:57 57.25837 94.13166 35968 ft 415 kts 242°
2026-04-19 21:57 57.24230 94.08758 35660 ft 411 kts 242°
2026-04-19 21:57 57.22643 94.04408 35160 ft 410 kts 242°
2026-04-19 21:57 57.21062 94.00074 34586 ft 412 kts 243°
2026-04-19 21:58 57.19456 93.95675 33989 ft 415 kts 243°
2026-04-19 21:58 57.17843 93.91264 33569 ft 413 kts 243°
2026-04-19 21:58 57.16269 93.86990 33379 ft 403 kts 244°
2026-04-19 21:58 57.14701 93.82744 32951 ft 401 kts 244°
2026-04-19 21:59 57.13134 93.78497 32599 ft 396 kts 244°
2026-04-19 21:59 57.11589 93.74319 32264 ft 390 kts 245°
2026-04-19 21:59 57.10081 93.70252 31915 ft 385 kts 245°
2026-04-19 21:59 57.08579 93.66201 31622 ft 377 kts 246°
2026-04-19 22:00 57.07121 93.62277 31232 ft 372 kts 246°
2026-04-19 22:00 57.05676 93.58390 30773 ft 367 kts 246°
2026-04-19 22:00 57.04260 93.54580 30265 ft 363 kts 246°
2026-04-19 22:00 57.02855 93.50804 29751 ft 358 kts 246°
2026-04-19 22:01 57.01451 93.47037 29163 ft 355 kts 246°
2026-04-19 22:01 57.00076 93.43357 28644 ft 350 kts 247°
2026-04-19 22:01 56.98713 93.39715 28137 ft 345 kts 247°
2026-04-19 22:01 56.97354 93.36086 27527 ft 343 kts 247°
2026-04-19 22:02 56.96022 93.32537 27003 ft 339 kts 246°
2026-04-19 22:02 56.94695 93.29002 26437 ft 336 kts 246°
2026-04-19 22:02 56.93382 93.25512 25909 ft 333 kts 246°
2026-04-19 22:02 56.92062 93.22009 25369 ft 331 kts 247°
2026-04-19 22:03 56.90760 93.18559 24786 ft 328 kts 247°
2026-04-19 22:03 56.89425 93.15230 24252 ft 332 kts 243°
2026-04-19 22:03 56.87917 93.12037 23696 ft 334 kts 240°
2026-04-19 22:03 56.86332 93.08926 23093 ft 335 kts 238°
2026-04-19 22:04 56.84723 93.05832 22511 ft 333 kts 238°
2026-04-19 22:04 56.83155 93.02800 21930 ft 333 kts 238°
2026-04-19 22:04 56.81587 92.99742 21360 ft 331 kts 238°
2026-04-19 22:04 56.80018 92.96664 20830 ft 328 kts 238°
2026-04-19 22:05 56.78475 92.93630 20238 ft 328 kts 238°
2026-04-19 22:05 56.76954 92.90630 19726 ft 324 kts 238°
2026-04-19 22:05 56.75433 92.87630 19140 ft 324 kts 238°
2026-04-19 22:05 56.73918 92.84642 18641 ft 320 kts 237°
2026-04-19 22:06 56.72416 92.81680 18064 ft 320 kts 237°
2026-04-19 22:06 56.70918 92.78728 17542 ft 317 kts 237°
2026-04-19 22:06 56.69412 92.75771 17021 ft 315 kts 237°
2026-04-19 22:06 56.67931 92.72864 16408 ft 316 kts 236°
2026-04-19 22:07 56.66450 92.69962 15871 ft 314 kts 236°
2026-04-19 22:07 56.64843 92.67288 15370 ft 320 kts 225°
2026-04-19 22:07 56.62800 92.65539 14881 ft 338 kts 202°
2026-04-19 22:07 56.60393 92.65182 14391 ft 349 kts 188°
2026-04-19 22:08 56.57968 92.65353 13862 ft 350 kts 185°
2026-04-19 22:08 56.55548 92.65627 13342 ft 349 kts 184°
2026-04-19 22:08 56.53149 92.65879 12816 ft 347 kts 185°
2026-04-19 22:08 56.50767 92.66081 12297 ft 345 kts 185°
2026-04-19 22:09 56.48374 92.66245 11780 ft 342 kts 185°
2026-04-19 22:09 56.46021 92.66383 11272 ft 340 kts 185°
2026-04-19 22:09 56.43647 92.66513 10769 ft 338 kts 185°
2026-04-19 22:09 56.41327 92.66643 10485 ft 329 kts 185°
2026-04-19 22:10 56.39110 92.66773 10360 ft 316 kts 185°
2026-04-19 22:10 56.36970 92.66898 10242 ft 303 kts 185°
2026-04-19 22:10 56.34892 92.67011 9969 ft 297 kts 185°
2026-04-19 22:10 56.32812 92.67112 9557 ft 296 kts 185°
2026-04-19 22:11 56.30766 92.67213 9191 ft 294 kts 185°
2026-04-19 22:11 56.28740 92.67460 8801 ft 297 kts 178°
2026-04-19 22:11 56.26754 92.68650 8332 ft 307 kts 151°
2026-04-19 22:11 56.25272 92.71413 7989 ft 308 kts 121°
2026-04-19 22:12 56.24361 92.74857 7598 ft 307 kts 111°
2026-04-19 22:12 56.23617 92.78401 7209 ft 304 kts 109°
2026-04-19 22:12 56.22879 92.81913 6831 ft 297 kts 110°
2026-04-19 22:12 56.22115 92.85332 6461 ft 290 kts 111°
2026-04-19 22:13 56.21266 92.88592 6089 ft 285 kts 120°
2026-04-19 22:13 56.20021 92.91232 5796 ft 274 kts 147°
2026-04-19 22:13 56.18336 92.92388 5654 ft 255 kts 178°
2026-04-19 22:13 56.16607 92.92172 5354 ft 246 kts 198°
2026-04-19 22:14 56.14997 92.91218 5066 ft 239 kts 206°
2026-04-19 22:14 56.13498 92.90063 4764 ft 233 kts 208°
2026-04-19 22:14 56.12043 92.88886 4575 ft 223 kts 210°
2026-04-19 22:14 56.10782 92.87530 4514 ft 203 kts 225°
2026-04-19 22:15 56.10026 92.85610 4440 ft 179 kts 258°
2026-04-19 22:15 56.09934 92.83520 4295 ft 165 kts 275°
2026-04-19 22:15 56.09943 92.81586 4172 ft 147 kts 277°
2026-04-19 22:15 56.10110 92.79844 4061 ft 138 kts 288°
2026-04-19 22:16 56.10410 92.78194 3933 ft 141 kts 292°
2026-04-19 22:16 56.10759 92.76563 3799 ft 139 kts 294°
2026-04-19 22:16 56.11135 92.74948 3623 ft 142 kts 295°
2026-04-19 22:16 56.11520 92.73334 3427 ft 141 kts 295°
2026-04-19 22:17 56.11908 92.71715 3239 ft 141 kts 296°
2026-04-19 22:17 56.12294 92.70112 3054 ft 140 kts 295°
2026-04-19 22:17 56.12681 92.68510 2867 ft 140 kts 295°
2026-04-19 22:17 56.13064 92.66924 2684 ft 139 kts 295°
2026-04-19 22:18 56.13446 92.65337 2505 ft 138 kts 295°
2026-04-19 22:18 56.13828 92.63758 2452 ft 139 kts 295°
2026-04-19 22:18 56.14214 92.62152 2244 ft 140 kts 294°
2026-04-19 22:18 56.14590 92.60584 2044 ft 137 kts 295°
2026-04-19 22:19 56.14970 92.59013 1847 ft 137 kts 294°
2026-04-19 22:19 56.15210 92.58009 1717 ft 137 kts 294°
2026-04-19 22:19 56.15579 92.56451 1521 ft 137 kts 293°
2026-04-19 22:19 56.15963 92.54870 1310 ft 137 kts 294°
2026-04-19 22:20 56.16349 92.53302 1099 ft 139 kts 294°
2026-04-19 22:20 56.16731 92.51689 929 ft 140 kts 293°
2026-04-19 22:20 56.17073 92.50248 912 ft 96 kts 293°
2026-04-19 22:20 56.17248 92.49500 904 ft 39 kts 292°
2026-04-19 22:21 56.17352 92.49056 900 ft 28 kts 296°
2026-04-19 22:21 56.17449 92.48765 898 ft 27 kts 315°
2026-04-19 22:21 56.17583 92.48581 894 ft 16 kts 324°
2026-04-19 22:21 56.17678 92.48457 894 ft 16 kts 325°
2026-04-19 22:22 56.17773 92.48405 898 ft 14 kts 16°
2026-04-19 22:22 56.17862 92.48470 899 ft 13 kts 22°
2026-04-19 22:22 56.17929 92.48521 901 ft 2 kts 23°
2026-04-19 22:22 56.17936 92.48527 901 ft 0 kts 22°
2026-04-19 22:23 56.17938 92.48528 901 ft 0 kts 22°